Schneifelwetter: Wetterstation Hallschlag, 537 m . NN
Wetterdaten: Montag, 06.11.2006
Datum Zeit Temp. A. Temp. 2 Feuchte A. Luftdruck Regen Wind Richtung Richtung Sonnenschein Helligkeit T Regen Taupunkt Windchill
06.11.2006 00:09 6,4 C 6,2 C 88 % 1027 hPa 0,0 l/m 16,8 km/h (3 Bft) W45 275 0 min 0 lux 0,00 min 4,6 C -0,1 C
06.11.2006 00:24 6,5 C 6,2 C 88 % 1027 hPa 0,0 l/m 15,5 km/h (3 Bft) W22.5 280 0 min 0 lux 0,00 min 4,7 C 0,7 C
06.11.2006 00:39 6,6 C 6,3 C 87 % 1027 hPa 0,0 l/m 17,8 km/h (3 Bft) W45 275 0 min 0 lux 0,00 min 4,6 C -0,2 C
06.11.2006 00:54 6,6 C 6,3 C 87 % 1027 hPa 0,0 l/m 15,7 km/h (3 Bft) W22.5 270 0 min 0 lux 0,00 min 4,6 C 0,7 C
06.11.2006 01:09 6,5 C 6,1 C 87 % 1026 hPa 0,0 l/m 14,2 km/h (3 Bft) W22.5 265 0 min 0 lux 0,00 min 4,5 C 1,3 C
06.11.2006 01:24 6,4 C 6,1 C 88 % 1026 hPa 0,0 l/m 11,8 km/h (2 Bft) W22.5 270 0 min 0 lux 0,00 min 4,6 C 2,5 C
06.11.2006 01:39 6,4 C 6,1 C 88 % 1026 hPa 0,0 l/m 16,5 km/h (3 Bft) W22.5 280 0 min 0 lux 0,00 min 4,6 C 0,1 C
06.11.2006 01:54 6,4 C 6,0 C 88 % 1026 hPa 0,0 l/m 13,4 km/h (3 Bft) W22.5 265 0 min 0 lux 0,00 min 4,6 C 1,6 C
06.11.2006 02:09 6,3 C 5,9 C 89 % 1026 hPa 0,0 l/m 22,8 km/h (4 Bft) W45 275 0 min 0 lux 0,00 min 4,6 C -2,5 C
06.11.2006 02:24 6,2 C 6,0 C 89 % 1026 hPa 0,0 l/m 3,1 km/h (1 Bft) W22.5 265 0 min 0 lux 0,00 min 4,5 C 6,2 C
06.11.2006 02:39 6,3 C 6,0 C 89 % 1026 hPa 0,0 l/m 11,7 km/h (2 Bft) W22.5 265 0 min 0 lux 0,00 min 4,6 C 2,4 C
06.11.2006 02:54 6,3 C 6,0 C 89 % 1026 hPa 0,0 l/m 13,3 km/h (3 Bft) W-SW22.5 255 0 min 0 lux 0,00 min 4,6 C 1,5 C
06.11.2006 03:09 6,2 C 6,0 C 89 % 1025 hPa 0,0 l/m 17,1 km/h (3 Bft) W22.5 260 0 min 0 lux 0,00 min 4,5 C -0,4 C
06.11.2006 03:24 6,2 C 5,9 C 89 % 1026 hPa 0,0 l/m 15,5 km/h (3 Bft) W45 275 0 min 0 lux 0,00 min 4,5 C 0,3 C
06.11.2006 03:39 6,1 C 5,8 C 89 % 1026 hPa 0,0 l/m 11,9 km/h (2 Bft) W-SW45 255 0 min 0 lux 0,00 min 4,4 C 2,1 C
06.11.2006 03:54 6,0 C 5,8 C 89 % 1025 hPa 0,0 l/m 15,6 km/h (3 Bft) W-SW22.5 255 0 min 0 lux 0,00 min 4,3 C -0,0 C
06.11.2006 04:09 6,0 C 5,8 C 90 % 1026 hPa 0,0 l/m 17,7 km/h (3 Bft) W-SW45 255 0 min 0 lux 0,00 min 4,5 C -1,0 C
06.11.2006 04:24 6,0 C 5,8 C 90 % 1026 hPa 0,0 l/m 17,7 km/h (3 Bft) W22.5 265 0 min 0 lux 0,00 min 4,5 C -1,0 C
06.11.2006 04:39 6,1 C 5,8 C 90 % 1025 hPa 0,0 l/m 21,3 km/h (4 Bft) W67.5 265 0 min 0 lux 0,00 min 4,6 C -2,2 C
06.11.2006 04:54 6,1 C 5,9 C 90 % 1025 hPa 0,0 l/m 18,5 km/h (3 Bft) W22.5 265 0 min 0 lux 0,00 min 4,6 C -1,2 C
06.11.2006 05:09 6,0 C 5,8 C 90 % 1025 hPa 0,0 l/m 19,6 km/h (3 Bft) W45 260 0 min 0 lux 0,00 min 4,5 C -1,7 C
06.11.2006 05:24 6,1 C 5,9 C 90 % 1025 hPa 0,0 l/m 21,4 km/h (4 Bft) W22.5 265 0 min 0 lux 0,00 min 4,6 C -2,3 C
06.11.2006 05:39 6,1 C 5,9 C 90 % 1025 hPa 0,0 l/m 21,1 km/h (4 Bft) W45 270 0 min 0 lux 0,00 min 4,6 C -2,2 C
06.11.2006 05:54 6,2 C 6,0 C 89 % 1026 hPa 0,0 l/m 18,7 km/h (3 Bft) W45 265 0 min 0 lux 0,00 min 4,5 C -1,1 C
06.11.2006 06:09 6,2 C 6,0 C 89 % 1026 hPa 0,0 l/m 21,2 km/h (4 Bft) W45 275 0 min 0 lux 0,00 min 4,5 C -2,1 C
06.11.2006 06:24 6,2 C 6,0 C 89 % 1026 hPa 0,0 l/m 21,9 km/h (4 Bft) W22.5 265 0 min 0 lux 0,00 min 4,5 C -2,3 C
06.11.2006 06:39 6,2 C 6,0 C 89 % 1026 hPa 0,0 l/m 19,3 km/h (3 Bft) W22.5 275 0 min 0 lux 0,00 min 4,5 C -1,4 C
06.11.2006 06:54 6,2 C 5,9 C 89 % 1026 hPa 0,0 l/m 21,5 km/h (4 Bft) W22.5 270 0 min 0 lux 0,00 min 4,5 C -2,2 C
06.11.2006 07:09 6,2 C 6,0 C 89 % 1026 hPa 0,0 l/m 23,8 km/h (4 Bft) W22.5 270 0 min 0 lux 0,00 min 4,5 C -2,9 C
06.11.2006 07:24 6,2 C 6,0 C 89 % 1026 hPa 0,0 l/m 19,2 km/h (3 Bft) W45 270 0 min 142 lux 0,00 min 4,5 C -1,3 C
06.11.2006 07:39 6,2 C 6,0 C 89 % 1026 hPa 0,0 l/m 15,2 km/h (3 Bft) W22.5 270 0 min 519 lux 0,00 min 4,5 C 0,4 C
06.11.2006 08:00 6,2 C 5,9 C 89 % 1026 hPa 0,0 l/m 22,5 km/h (4 Bft) W22.5 260 0 min 1,52 klux 0,00 min 4,5 C -2,5 C
06.11.2006 08:15 6,2 C 6,0 C 89 % 1026 hPa 0,0 l/m 24,0 km/h (4 Bft) W22.5 260 0 min 1,75 klux 0,00 min 4,5 C -3,0 C
06.11.2006 08:30 6,3 C 6,0 C 88 % 1026 hPa 0,0 l/m 27,3 km/h (4 Bft) W45 270 0 min 2,68 klux 0,00 min 4,5 C -3,8 C
06.11.2006 08:45 6,4 C 6,1 C 88 % 1026 hPa 0,0 l/m 25,0 km/h (4 Bft) W45 275 0 min 3,78 klux 0,00 min 4,6 C -3,0 C
06.11.2006 09:00 6,4 C 6,2 C 87 % 1026 hPa 0,0 l/m 24,3 km/h (4 Bft) W45 270 0 min 4,32 klux 0,00 min 4,4 C -2,8 C
06.11.2006 09:15 6,5 C 6,3 C 87 % 1026 hPa 0,0 l/m 25,0 km/h (4 Bft) W22.5 265 0 min 6,55 klux 0,00 min 4,5 C -2,9 C
06.11.2006 09:30 6,7 C 6,5 C 87 % 1026 hPa 0,0 l/m 23,9 km/h (4 Bft) W45 270 0 min 8,78 klux 0,00 min 4,7 C -2,3 C
06.11.2006 09:45 6,8 C 6,6 C 86 % 1027 hPa 0,0 l/m 28,3 km/h (4 Bft) W45 270 0 min 8,03 klux 0,00 min 4,6 C -3,4 C
06.11.2006 10:00 6,8 C 6,6 C 85 % 1027 hPa 0,0 l/m 25,0 km/h (4 Bft) W45 275 0 min 7,22 klux 0,00 min 4,5 C -2,5 C
06.11.2006 10:15 6,7 C 6,6 C 85 % 1027 hPa 0,0 l/m 24,0 km/h (4 Bft) W22.5 265 0 min 7,58 klux 0,00 min 4,4 C -2,3 C
06.11.2006 10:30 7,0 C 6,7 C 85 % 1027 hPa 0,0 l/m 23,0 km/h (4 Bft) W45 275 0 min 10,6 klux 0,00 min 4,7 C -1,6 C
06.11.2006 10:45 7,3 C 7,1 C 85 % 1027 hPa 0,0 l/m 21,8 km/h (4 Bft) W22.5 270 0 min 11,4 klux 0,00 min 4,9 C -0,8 C
06.11.2006 11:00 7,8 C 7,6 C 84 % 1026 hPa 0,0 l/m 22,1 km/h (4 Bft) W22.5 275 0 min 20,5 klux 0,00 min 5,3 C -0,3 C
06.11.2006 11:15 8,4 C 8,0 C 83 % 1027 hPa 0,0 l/m 22,9 km/h (4 Bft) W45 270 0 min 20,2 klux 0,00 min 5,7 C 0,3 C
06.11.2006 11:30 8,5 C 8,3 C 82 % 1026 hPa 0,0 l/m 22,1 km/h (4 Bft) W22.5 270 0 min 43,9 klux 0,00 min 5,6 C 0,7 C
06.11.2006 11:45 8,8 C 8,5 C 81 % 1026 hPa 0,0 l/m 24,7 km/h (4 Bft) W45 260 0 min 33,7 klux 0,00 min 5,7 C 0,3 C
06.11.2006 12:00 8,8 C 8,5 C 80 % 1026 hPa 0,0 l/m 25,2 km/h (4 Bft) W22.5 260 0 min 27,1 klux 0,00 min 5,5 C 0,2 C
06.11.2006 12:15 9,5 C 10,2 C 80 % 1026 hPa 0,0 l/m 24,2 km/h (4 Bft) W-SW45 255 15 min 57,6 klux 0,00 min 6,2 C 1,4 C
06.11.2006 12:30 9,5 C 9,8 C 78 % 1026 hPa 0,0 l/m 24,1 km/h (4 Bft) W-SW22.5 255 0 min 28,5 klux 0,00 min 5,9 C 1,4 C
06.11.2006 12:45 9,3 C 9,2 C 78 % 1026 hPa 0,0 l/m 22,0 km/h (4 Bft) W45 265 0 min 22,3 klux 0,00 min 5,7 C 1,7 C
06.11.2006 13:00 9,2 C 9,0 C 78 % 1026 hPa 0,0 l/m 23,5 km/h (4 Bft) W22.5 260 0 min 21,0 klux 0,00 min 5,6 C 1,2 C
06.11.2006 13:15 9,0 C 8,8 C 78 % 1026 hPa 0,0 l/m 19,5 km/h (3 Bft) W45 260 0 min 20,4 klux 0,00 min 5,4 C 2,2 C
06.11.2006 13:30 9,1 C 8,7 C 78 % 1026 hPa 0,0 l/m 21,8 km/h (4 Bft) W22.5 260 0 min 21,0 klux 0,00 min 5,5 C 1,5 C
06.11.2006 13:45 9,2 C 8,8 C 79 % 1026 hPa 0,0 l/m 23,0 km/h (4 Bft) W45 260 0 min 24,1 klux 0,00 min 5,8 C 1,3 C
06.11.2006 14:00 9,4 C 9,2 C 78 % 1025 hPa 0,0 l/m 19,1 km/h (3 Bft) W22.5 265 0 min 29,3 klux 0,00 min 5,8 C 2,8 C
06.11.2006 14:15 9,4 C 9,3 C 78 % 1025 hPa 0,0 l/m 22,9 km/h (4 Bft) W-SW45 250 0 min 24,3 klux 0,00 min 5,8 C 1,6 C
06.11.2006 14:30 9,3 C 9,2 C 78 % 1025 hPa 0,0 l/m 24,5 km/h (4 Bft) W45 270 0 min 20,0 klux 0,00 min 5,7 C 1,0 C
06.11.2006 14:45 9,1 C 9,0 C 78 % 1025 hPa 0,0 l/m 20,5 km/h (4 Bft) W45 260 0 min 18,8 klux 0,00 min 5,5 C 2,0 C
06.11.2006 15:00 9,1 C 8,8 C 79 % 1025 hPa 0,0 l/m 18,5 km/h (3 Bft) W-SW22.5 255 0 min 16,9 klux 0,00 min 5,7 C 2,7 C
06.11.2006 15:15 8,9 C 8,7 C 79 % 1025 hPa 0,0 l/m 18,9 km/h (3 Bft) W-SW45 250 0 min 15,5 klux 0,00 min 5,5 C 2,3 C
06.11.2006 15:30 8,8 C 8,8 C 80 % 1025 hPa 0,0 l/m 24,1 km/h (4 Bft) W-SW22.5 255 0 min 15,1 klux 0,00 min 5,5 C 0,5 C
06.11.2006 15:45 8,8 C 9,0 C 80 % 1025 hPa 0,0 l/m 15,8 km/h (3 Bft) W45 265 0 min 13,7 klux 0,00 min 5,5 C 3,3 C
06.11.2006 16:00 8,8 C 9,5 C 80 % 1025 hPa 0,0 l/m 15,9 km/h (3 Bft) W22.5 265 0 min 11,8 klux 0,00 min 5,5 C 3,3 C
06.11.2006 16:15 8,3 C 8,9 C 80 % 1025 hPa 0,0 l/m 16,9 km/h (3 Bft) W45 265 0 min 9,8 klux 0,00 min 5,1 C 2,3 C
06.11.2006 16:30 7,8 C 8,0 C 80 % 1025 hPa 0,0 l/m 13,4 km/h (3 Bft) W67.5 275 0 min 7,52 klux 0,00 min 4,6 C 3,2 C
06.11.2006 16:45 7,3 C 6,9 C 81 % 1025 hPa 0,0 l/m 14,3 km/h (3 Bft) W45 260 0 min 4,22 klux 0,00 min 4,3 C 2,2 C
06.11.2006 17:00 6,6 C 5,9 C 82 % 1025 hPa 0,0 l/m 14,5 km/h (3 Bft) W45 265 0 min 2,71 klux 0,00 min 3,8 C 1,3 C
06.11.2006 17:15 6,0 C 4,6 C 83 % 1025 hPa 0,0 l/m 8,6 km/h (2 Bft) W22.5 270 0 min 924 lux 0,00 min 3,3 C 4,2 C
06.11.2006 17:30 5,4 C 4,1 C 85 % 1025 hPa 0,0 l/m 11,5 km/h (2 Bft) W22.5 275 0 min 159 lux 0,00 min 3,1 C 1,5 C
06.11.2006 17:45 4,9 C 3,4 C 85 % 1025 hPa 0,0 l/m 5,2 km/h (1 Bft) W22.5 265 0 min 15 lux 0,00 min 2,6 C 4,9 C
06.11.2006 18:00 4,0 C 2,4 C 85 % 1025 hPa 0,0 l/m 3,3 km/h (1 Bft) SW22.5 230 0 min 0 lux 0,00 min 1,7 C 4,0 C
06.11.2006 18:15 3,5 C 2,1 C 87 % 1025 hPa 0,0 l/m 0,2 km/h (0 Bft) SW 215 0 min 0 lux 0,00 min 1,5 C 3,5 C
06.11.2006 18:30 3,1 C 1,8 C 87 % 1026 hPa 0,0 l/m 0,3 km/h (0 Bft) SW 215 0 min 0 lux 0,00 min 1,2 C 3,1 C
06.11.2006 18:45 3,3 C 2,2 C 89 % 1026 hPa 0,0 l/m 9,1 km/h (2 Bft) W22.5 260 0 min 0 lux 0,00 min 1,7 C 0,9 C
06.11.2006 19:00 3,6 C 2,7 C 90 % 1026 hPa 0,0 l/m 12,6 km/h (3 Bft) W22.5 270 0 min 0 lux 0,00 min 2,1 C -1,2 C
06.11.2006 19:15 3,9 C 2,5 C 90 % 1025 hPa 0,0 l/m 4,3 km/h (1 Bft) W22.5 270 0 min 0 lux 0,00 min 2,4 C 3,9 C
06.11.2006 19:30 3,5 C 1,9 C 89 % 1025 hPa 0,0 l/m 4,6 km/h (1 Bft) W22.5 265 0 min 0 lux 0,00 min 1,9 C 3,5 C
06.11.2006 19:45 2,9 C 1,0 C 89 % 1025 hPa 0,0 l/m 2,4 km/h (1 Bft) W-NW 285 0 min 0 lux 0,00 min 1,3 C 2,9 C
06.11.2006 20:00 2,4 C 0,3 C 89 % 1025 hPa 0,0 l/m 3,2 km/h (1 Bft) W-NW 285 0 min 0 lux 0,00 min 0,8 C 2,4 C
06.11.2006 20:15 2,3 C 1,1 C 90 % 1025 hPa 0,0 l/m 4,0 km/h (1 Bft) W-SW22.5 255 0 min 0 lux 0,00 min 0,8 C 2,3 C
06.11.2006 20:30 2,6 C 1,5 C 91 % 1025 hPa 0,0 l/m 0,0 km/h (0 Bft) W-SW 255 0 min 0 lux 0,00 min 1,3 C 2,6 C
06.11.2006 20:45 2,9 C 2,2 C 91 % 1025 hPa 0,0 l/m 0,0 km/h (0 Bft) W-SW 255 0 min 0 lux 0,00 min 1,6 C 2,9 C
06.11.2006 21:00 3,1 C 2,6 C 91 % 1025 hPa 0,0 l/m 0,0 km/h (0 Bft) W-SW 255 0 min 0 lux 0,00 min 1,8 C 3,1 C
06.11.2006 21:15 3,3 C 2,9 C 91 % 1025 hPa 0,0 l/m 2,5 km/h (1 Bft) W-SW 255 0 min 0 lux 0,00 min 2,0 C 3,3 C
06.11.2006 21:30 3,6 C 3,1 C 91 % 1025 hPa 0,0 l/m 0,0 km/h (0 Bft) W-SW 255 0 min 0 lux 0,00 min 2,3 C 3,6 C
06.11.2006 21:45 3,6 C 3,2 C 91 % 1025 hPa 0,0 l/m 0,0 km/h (0 Bft) W-SW 255 0 min 0 lux 0,00 min 2,3 C 3,6 C
06.11.2006 22:00 3,8 C 3,4 C 91 % 1025 hPa 0,0 l/m 0,0 km/h (0 Bft) W-SW 255 0 min 0 lux 0,00 min 2,5 C 3,8 C
06.11.2006 22:15 4,0 C 3,5 C 92 % 1025 hPa 0,0 l/m 0,7 km/h (0 Bft) W22.5 260 0 min 0 lux 0,00 min 2,8 C 4,0 C
06.11.2006 22:30 4,3 C 3,8 C 92 % 1025 hPa 0,0 l/m 0,1 km/h (0 Bft) W-NW22.5 300 0 min 0 lux 0,00 min 3,1 C 4,3 C
06.11.2006 22:45 4,3 C 3,8 C 92 % 1025 hPa 0,0 l/m 0,0 km/h (0 Bft) W-NW 295 0 min 0 lux 0,00 min 3,1 C 4,3 C
06.11.2006 23:00 4,3 C 3,8 C 91 % 1025 hPa 0,0 l/m 0,0 km/h (0 Bft) W-NW 295 0 min 0 lux 0,00 min 3,0 C 4,3 C
06.11.2006 23:15 4,3 C 3,7 C 91 % 1025 hPa 0,0 l/m 0,3 km/h (0 Bft) N45 350 0 min 0 lux 0,00 min 3,0 C 4,3 C
06.11.2006 23:30 4,3 C 3,5 C 91 % 1024 hPa 0,0 l/m 7,7 km/h (2 Bft) O-NO22.5 60 0 min 0 lux 0,00 min 3,0 C 3,1 C
06.11.2006 23:45 4,1 C 3,1 C 91 % 1024 hPa 0,0 l/m 3,9 km/h (1 Bft) O-NO 60 0 min 0 lux 0,00 min 2,8 C 4,1 C
06.11.2006 23:54 3,9 C 2,8 C 91 % 1024 hPa 0,0 l/m 5,2 km/h (1 Bft) O22.5 95 0 min 0 lux 0,00 min 2,6 C 3,9 C
_ Min-Zeit 20:15 20:00 12:30 23:30 - 20:30 - - - - - 20:00 08:30
Minimum _ 2,3 C 0,3 C 78 % 1024 hPa - 0,0 km/h (0 Bft) - - - - - 0,8 C -3,8 C
_ Max-Zeit 12:15 12:15 22:15 00:09 00:09 09:45 - - 12:15 12:15 00:09 12:15 02:24
Maximum _ 9,5 C 10,2 C 92 % 1027 hPa 0,0 l/m 28,3 km/h
W (4 Bft)
- - 15 min 57,6 klux 0,00 min 6,2 C 6,2 C
Durchschnitt _ 6,2 C 5,8 C 86 % 1026 hPa #0,0 l/m 14,9 km/h (3 Bft) W - #15 min. 6,31 klux #0 min. 4,1 C 1,0 C